When you browse on this site, cookies collect data to enhance your experience and personalize the content and advertising you see.
Visit our Privacy Policy to learn more. By continuing to use the site, you agree to this use of cookies and data.
  • In United Kingdom
  • List of Countries
  • For 7 days
  • Water Temperature
  • Weather Map
  • Weather Widgets
  • user-avatar
    Login

    Hourly Weather Kanye

    Today, 21 February, Friday

    Time Temperature Precipitation Wind Pressure Humidity
    00:00 +24°C° 0 mm 2 mps 651 mmHg 59%
    01:00 +24°C° 0 mm 2 mps 651 mmHg 61%
    02:00 +23°C° 0 mm 2 mps 650 mmHg 66%
    03:00 +23°C° 0 mm 2 mps 650 mmHg 66%
    04:00 +23°C° 0 mm 1 mps 650 mmHg 66%
    05:00 +23°C° 0 mm 1 mps 650 mmHg 66%
    06:00 +24°C° 0 mm 1 mps 651 mmHg 61%
    07:00 +25°C° 0 mm 1 mps 651 mmHg 56%
    08:00 +26°C° 0 mm 1 mps 652 mmHg 57%
    15:00 +31°C° 0 mm 3 mps 651 mmHg 38%
    16:00 +31°C° 0 mm 3 mps 651 mmHg 40%
    17:00 +30°C° 0 mm 3 mps 651 mmHg 43%
    18:00 +28°C° 0.1 mm 3 mps 651 mmHg 49%
    19:00 +26°C° 0.1 mm 4 mps 651 mmHg 56%
    20:00 +25°C° 0.1 mm 4 mps 651 mmHg 63%
    21:00 +23°C° 0.3 mm 4 mps 651 mmHg 65%
    22:00 +22°C° 0.3 mm 3 mps 651 mmHg 68%
    23:00 +22°C° 0.3 mm 3 mps 651 mmHg 70%

    Tomorrow, 22 February, Saturday

    Time Temperature Precipitation Wind Pressure Humidity
    00:00 +22°C° 0 mm 3 mps 651 mmHg 72%
    01:00 +21°C° 0 mm 3 mps 650 mmHg 73%
    02:00 +21°C° 0 mm 2 mps 650 mmHg 75%
    03:00 +21°C° 0 mm 2 mps 650 mmHg 74%
    04:00 +21°C° 0 mm 2 mps 650 mmHg 74%
    05:00 +22°C° 0 mm 1 mps 649 mmHg 73%
    06:00 +23°C° 0.1 mm 1 mps 650 mmHg 70%
    07:00 +24°C° 0.1 mm 1 mps 651 mmHg 67%
    08:00 +25°C° 0.1 mm 1 mps 652 mmHg 64%
    09:00 +27°C° 0.7 mm 2 mps 652 mmHg 59%
    10:00 +28°C° 0.7 mm 2 mps 652 mmHg 53%
    11:00 +30°C° 0.7 mm 3 mps 652 mmHg 48%
    12:00 +31°C° 0.2 mm 3 mps 651 mmHg 45%
    13:00 +31°C° 0.2 mm 3 mps 651 mmHg 42%
    14:00 +33°C° 0.2 mm 3 mps 650 mmHg 39%
    15:00 +31°C° 0.6 mm 2 mps 650 mmHg 43%
    16:00 +30°C° 0.6 mm 2 mps 649 mmHg 46%
    17:00 +29°C° 0.6 mm 2 mps 648 mmHg 50%
    18:00 +27°C° 0.2 mm 2 mps 648 mmHg 58%
    19:00 +25°C° 0.2 mm 2 mps 648 mmHg 67%
    20:00 +22°C° 0.2 mm 3 mps 648 mmHg 75%
    21:00 +22°C° 1.1 mm 3 mps 649 mmHg 78%
    22:00 +22°C° 1.1 mm 3 mps 649 mmHg 81%
    23:00 +21°C° 1.1 mm 3 mps 650 mmHg 84%

    Day after tomorrow, 23 February, Sunday

    Time Temperature Precipitation Wind Pressure Humidity
    00:00 +21°C° 0.1 mm 2 mps 649 mmHg 85%
    01:00 +21°C° 0.1 mm 2 mps 649 mmHg 87%
    02:00 +20°C° 0.1 mm 2 mps 648 mmHg 88%
    03:00 +20°C° 0 mm 2 mps 648 mmHg 89%
    04:00 +20°C° 0 mm 2 mps 648 mmHg 91%
    05:00 +19°C° 0 mm 2 mps 648 mmHg 92%
    06:00 +20°C° 0 mm 2 mps 649 mmHg 88%
    07:00 +21°C° 0 mm 3 mps 649 mmHg 84%
    08:00 +22°C° 0 mm 3 mps 650 mmHg 81%
    09:00 +24°C° 0.3 mm 3 mps 650 mmHg 73%
    10:00 +26°C° 0.3 mm 3 mps 650 mmHg 65%
    11:00 +27°C° 0.3 mm 3 mps 651 mmHg 58%
    12:00 +27°C° 1 mm 3 mps 650 mmHg 60%
    13:00 +26°C° 1 mm 2 mps 649 mmHg 62%
    14:00 +26°C° 1 mm 2 mps 649 mmHg 64%
    15:00 +27°C° 0.1 mm 2 mps 649 mmHg 60%
    16:00 +27°C° 0.1 mm 3 mps 649 mmHg 57%
    17:00 +28°C° 0.1 mm 3 mps 649 mmHg 54%
    18:00 +25°C° 1.7 mm 5 mps 649 mmHg 65%
    19:00 +21°C° 1.7 mm 6 mps 649 mmHg 76%
    20:00 +18°C° 1.7 mm 8 mps 649 mmHg 88%
    21:00 +17°C° 1.4 mm 9 mps 650 mmHg 89%
    22:00 +17°C° 1.4 mm 9 mps 651 mmHg 90%
    23:00 +16°C° 1.4 mm 10 mps 651 mmHg 92%

    24 February, Monday

    Time Temperature Precipitation Wind Pressure Humidity
    00:00 +16°C° 0.2 mm 9 mps 651 mmHg 91%
    01:00 +16°C° 0.2 mm 9 mps 651 mmHg 91%
    02:00 +17°C° 0.2 mm 9 mps 651 mmHg 91%
    03:00 +17°C° 0 mm 8 mps 651 mmHg 91%
    04:00 +17°C° 0 mm 8 mps 651 mmHg 90%
    05:00 +17°C° 0 mm 7 mps 651 mmHg 90%
    06:00 +16°C° 0.1 mm 7 mps 651 mmHg 90%
    07:00 +16°C° 0.1 mm 6 mps 652 mmHg 90%
    08:00 +16°C° 0.1 mm 6 mps 652 mmHg 89%
    09:00 +16°C° 0.1 mm 6 mps 652 mmHg 88%
    10:00 +17°C° 0.1 mm 6 mps 653 mmHg 86%
    11:00 +17°C° 0.1 mm 6 mps 653 mmHg 84%
    12:00 +19°C° 0 mm 6 mps 653 mmHg 81%
    13:00 +19°C° 0 mm 6 mps 653 mmHg 78%
    14:00 +20°C° 0 mm 5 mps 652 mmHg 74%
    15:00 +20°C° 0 mm 5 mps 652 mmHg 71%
    16:00 +21°C° 0 mm 5 mps 652 mmHg 68%
    17:00 +21°C° 0 mm 5 mps 652 mmHg 64%
    18:00 +20°C° 0 mm 5 mps 652 mmHg 69%
    19:00 +19°C° 0 mm 4 mps 652 mmHg 73%
    20:00 +17°C° 0 mm 3 mps 652 mmHg 78%
    21:00 +17°C° 0 mm 3 mps 652 mmHg 79%
    22:00 +16°C° 0 mm 3 mps 652 mmHg 81%
    23:00 +16°C° 0 mm 3 mps 652 mmHg 82%

    25 February, Tuesday

    Time Temperature Precipitation Wind Pressure Humidity
    00:00 +16°C° 0 mm 3 mps 652 mmHg 84%
    01:00 +14°C° 0 mm 3 mps 651 mmHg 86%
    02:00 +14°C° 0 mm 3 mps 651 mmHg 88%
    03:00 +14°C° 0 mm 4 mps 651 mmHg 88%
    04:00 +14°C° 0 mm 4 mps 651 mmHg 88%
    05:00 +14°C° 0 mm 4 mps 651 mmHg 87%
    06:00 +15°C° 0 mm 5 mps 652 mmHg 86%
    07:00 +15°C° 0 mm 5 mps 652 mmHg 85%
    08:00 +15°C° 0 mm 5 mps 652 mmHg 84%
    09:00 +16°C° 0 mm 5 mps 652 mmHg 82%
    10:00 +16°C° 0 mm 5 mps 652 mmHg 79%
    11:00 +17°C° 0 mm 5 mps 653 mmHg 77%
    12:00 +19°C° 0 mm 5 mps 652 mmHg 74%
    13:00 +19°C° 0 mm 5 mps 652 mmHg 72%
    14:00 +20°C° 0 mm 5 mps 652 mmHg 69%
    15:00 +20°C° 0 mm 4 mps 652 mmHg 69%
    16:00 +20°C° 0 mm 4 mps 651 mmHg 69%
    17:00 +20°C° 0 mm 4 mps 651 mmHg 69%
    18:00 +19°C° 0 mm 3 mps 651 mmHg 72%
    19:00 +19°C° 0 mm 3 mps 651 mmHg 76%
    20:00 +18°C° 0 mm 2 mps 651 mmHg 79%
    21:00 +18°C° 0 mm 2 mps 651 mmHg 79%
    22:00 +19°C° 0 mm 1 mps 651 mmHg 80%
    23:00 +19°C° 0 mm 1 mps 651 mmHg 80%

    26 February, Wednesday

    Time Temperature Precipitation Wind Pressure Humidity
    00:00 +19°C° 0 mm 1 mps 650 mmHg 81%
    01:00 +18°C° 0 mm 1 mps 650 mmHg 82%
    02:00 +17°C° 0 mm 2 mps 650 mmHg 83%
    03:00 +17°C° 0 mm 2 mps 650 mmHg 83%
    04:00 +17°C° 0 mm 2 mps 650 mmHg 82%
    05:00 +18°C° 0 mm 2 mps 650 mmHg 81%
    06:00 +18°C° 0.1 mm 3 mps 650 mmHg 80%
    07:00 +18°C° 0.1 mm 4 mps 651 mmHg 80%
    08:00 +18°C° 0.1 mm 4 mps 651 mmHg 79%
    09:00 +18°C° 0.8 mm 4 mps 651 mmHg 80%
    10:00 +18°C° 0.8 mm 4 mps 651 mmHg 81%
    11:00 +18°C° 0.8 mm 3 mps 651 mmHg 82%
    12:00 +19°C° 0.2 mm 3 mps 651 mmHg 82%
    13:00 +19°C° 0.2 mm 3 mps 651 mmHg 81%
    14:00 +19°C° 0.2 mm 3 mps 650 mmHg 81%
    15:00 +19°C° 0.1 mm 2 mps 650 mmHg 83%
    16:00 +20°C° 0.1 mm 1 mps 650 mmHg 84%
    17:00 +17°C° 0.1 mm 0 mps 649 mmHg 86%
    18:00 +19°C° 0 mm 1 mps 650 mmHg 87%
    19:00 +19°C° 0 mm 1 mps 650 mmHg 88%
    20:00 +19°C° 0 mm 1 mps 650 mmHg 88%
    21:00 +19°C° 0 mm 1 mps 650 mmHg 88%
    22:00 +19°C° 0 mm 1 mps 650 mmHg 88%
    23:00 +19°C° 0 mm 1 mps 650 mmHg 88%
    Show more